Weather Roundup
Issued by NWS

Home | Current Version | Previous Version | Graphics & Text | Print | Product List | Glossary Off
Versions: 1 2 3 4 5 6 7 8 9 10 11 12 13 14 15 16 17 18 19 20 21 22 23 24 25 26 27 28 29 30 31 32 33 34 35 36 37 38 39 40 41 42 43 44 45 46 47 48 49 50

000
NZUS93 KARX 030010
HRRWXR

CURRENT HOURLY OBSERVATIONS ACROSS
MUCH OF THE UPPER MISSISSIPPI VALLEY
NATIONAL WEATHER SERVICE LA CROSSE WI
700 PM CDT SAT MAY 02 2015


...SOUTHEAST MINNESOTA...


CITY           SKY/WX    TMP DP  RH WIND       PRES   REMARKS
ROCHESTER      SUNNY     74  48  39 S23G30    29.82S
ROCHESTER/MAYO FAIR      76  47  35 S13G22    29.81S
WINONA         MOSUNNY   77  46  33 SW12      29.81S
AUSTIN         MOSUNNY   72  50  46 S17G24    29.81F
ALBERT LEA     SUNNY     75  46  35 SW10G17   29.80F
DODGE CENTER   MOSUNNY   75  46  35 SW20G25   29.80S
PRESTON        SUNNY     72  48  42 S18G31    29.85S
OWATONNA       SUNNY     77  46  33 S15       29.78S
FARIBAULT      SUNNY     79  43  27 S10       29.76F
$$

...ELSEWHERE IN MINNESOTA...


CITY           SKY/WX    TMP DP  RH WIND       PRES   REMARKS
MINNEAPOLIS    MOSUNNY   78  43  28 S6        29.74F
INTNL FALLS    PTSUNNY   76  35  22 SW14G28   29.63R
DULUTH         MOSUNNY   69  42  37 SE7       29.74F
RED WING       SUNNY     81  37  21 W10       29.75F
REDWOOD FALLS  PTSUNNY   82  43  25 SW17      29.69F
MANKATO        MOSUNNY   70  46  43 SW29G35   29.75S THUNDER
WORTHINGTON    SUNNY     75  48  38 S17       29.77F
FAIRMONT       MOSUNNY   75  36  23 S20G29    29.77F
$$

...SOUTHWEST WISCONSIN...


CITY           SKY/WX    TMP DP  RH WIND       PRES   REMARKS
LA CROSSE      MOSUNNY   76  49  38 S16       29.82F
PRAIRIE DU CHI PTSUNNY   72  45  37 SW16G22   29.88S
BOSCOBEL       CLOUDY    75  48  38 SW10      29.88F
LONE ROCK      MOSUNNY   74  40  29 SW9       29.89S
PLATTEVILLE    PTSUNNY   72  45  37 SW13      29.92S
FORT MC COY    PTSUNNY   74  42  31 S8        29.85S
CAMP DOUGLAS   SUNNY     75  40  28 SW10      29.85F
VIROQUA        FAIR      71  48  43 S15       29.88S
WIS DELLS      NOT AVBL
$$

...ELSEWHERE IN WISCONSIN...


CITY           SKY/WX    TMP DP  RH WIND       PRES   REMARKS
MILWAUKEE      MOCLDY    67  38  34 S10       29.92S
MADISON        MOCLDY    73  41  31 SW8       29.90F
GREEN BAY      CLEAR     75  45  34 S7        29.86S
EAU CLAIRE     SUNNY     76  43  30 S13       29.78F
BLACK RVR FLS  FAIR      77  42  28 SW13G18   29.82F
MEDFORD        MOSUNNY   72  42  33 SW9       29.83F
WAUSAU         MOSUNNY   73  41  31 SW12      29.83F
WIS RAPIDS     MOSUNNY   75  37  25 SW16      29.86F
MARSHFIELD     MOSUNNY   75  41  29 SW13      29.84F
RICE LAKE      SUNNY     76  40  27 S10       29.79F
$$

...NORTHEAST IOWA...


CITY           SKY/WX    TMP DP  RH WIND       PRES   REMARKS
DECORAH        SUNNY     72  48  43 SW6G21    29.86F
MASON CITY     SUNNY     72  51  47 S16G25    29.85S
CHARLES CITY   SUNNY     72  50  46 SW13G21   29.87F
OELWEIN        SUNNY     70  50  49 SW16G22   29.90F
$$

...ELSEWHERE IN IOWA...


CITY           SKY/WX    TMP DP  RH WIND       PRES   REMARKS
DES MOINES     MOSUNNY   65  55  70 S15       29.89F
IOWA CITY      PTSUNNY   67  53  61 S12       29.95F
FORT DODGE     MOSUNNY   68  52  56 S18       29.86S
$$

...NORTHERN ILLINOIS...


CITY           SKY/WX    TMP DP  RH WIND       PRES   REMARKS
CHICAGO-OHARE  PTCLDY    74  35  24 SW9       29.94S
CHICAGO-MIDWAY MOCLDY    76  34  21 SW12G18   29.95F
MOLINE         CLOUDY    71  42  35 W10       29.95R
ROCKFORD       MOCLDY    75  38  26 S12       29.95F
PEORIA         CLOUDY    71  44  37 SW5       29.97F
$$

NOTE: "FAIR" INDICATES FEW OR NO CLOUDS BELOW 12,000 FEET WITH NO
SIGNIFICANT WEATHER AND/OR OBSTRUCTIONS TO VISIBILITY. WIND
SPEEDS ARE IN MILES-PER-HOUR.



USA.gov is the U.S. government's official web portal to all federal, state and local government web resources and services.